Location: Unspecified
(48.2082°N, 0.0000°E)
Time: 10:34:38
(UTC+00:00)

S-56A Canister/Altair - Pass Details

Date: 18 August 2020
Orbit: 633 x 2499 km, 38.9° (Epoch: 22 September)

Event Time Altitude Azimuth Distance (km) Brightness Sun altitude
Exits shadow 04:05:09 - 211° (SSW) 2,446 9.6 -8.9°
Reaches altitude 10° 04:05:42 10° 207° (SSW) 2,287 9.5 -8.8°
Maximum altitude 04:09:57 25° 153° (SSE) 1,755 9.3 -8.2°
Drops below altitude 10° 04:15:26 10° 102° (ESE) 3,031 11.4 -7.4°
Sets 04:19:19 0° 91° (E) 4,338 12.6 -6.8°
